Wind_Speed
33 33 34 35 36 37 38 39 42 43 44 45 44 45 46 46 48 47 46 45 44 43 43 44 44 44 44 44 43 41 39 39 38 36 36 35 35 34 35 35 34 34 33
32 32 33 34 36 37 38 38 40 42 44 44 44 44 45 45 47 47 46 45 44 43 41 41 43 44 44 44 44 43 41 40 39 38 37 36 36 36 35 36 36 36 35
33 33 34 34 35 37 38 39 40 40 42 44 44 45 45 46 46 46 46 45 45 44 43 42 41 42 42 43 43 43 42 41 40 39 39 38 38 37 37 37 37 37 37
32 32 33 34 34 35 37 39 40 40 41 43 44 45 44 45 45 45 46 46 45 45 43 43 43 42 42 42 43 44 44 42 41 40 40 39 39 38 39 38 38 38 38
29 29 31 32 34 34 35 37 39 40 41 42 43 44 43 44 45 45 46 46 46 45 44 43 44 43 42 41 42 44 44 43 41 41 41 40 40 40 40 40 40 40 40
28 28 29 30 32 33 34 36 37 39 40 42 43 44 44 44 44 45 45 46 46 46 45 44 44 43 43 43 42 43 43 43 43 42 41 40 41 41 41 41 41 41 41
28 28 29 30 31 32 33 34 36 38 40 41 42 43 43 44 44 45 45 45 46 47 46 45 44 44 43 43 42 42 43 43 43 43 42 42 42 42 42 42 42 42 41
28 28 29 29 29 30 31 33 35 37 38 40 41 43 43 44 45 45 45 45 45 46 46 45 45 44 44 44 43 42 43 43 43 43 43 43 44 44 44 43 43 43 43
28 28 29 29 29 30 31 32 34 37 38 40 40 42 43 43 45 46 46 46 46 46 45 44 45 46 46 45 45 44 44 44 44 43 43 44 43 44 44 44 44 45 44
28 28 28 28 28 29 31 32 33 36 37 38 40 42 43 43 44 46 47 47 48 48 46 45 45 46 47 47 47 46 46 46 45 44 44 45 44 44 45 45 45 45 45
28 28 27 27 27 28 29 31 32 34 36 37 38 41 43 44 45 46 46 47 48 48 47 46 47 47 47 48 48 47 47 48 47 45 44 45 45 46 45 46 46 46 46
27 28 27 27 27 28 28 29 30 31 34 36 38 40 42 44 45 46 46 46 47 48 48 47 47 47 47 48 48 48 47 48 48 47 46 46 46 46 46 47 46 47 47
26 27 28 28 28 28 27 28 29 31 32 34 35 38 41 42 44 45 45 46 46 47 47 46 47 47 48 49 49 48 48 47 47 47 47 46 46 46 46 47 47 47 47
26 27 28 27 27 27 27 27 29 31 32 33 34 37 39 40 41 43 44 45 46 47 47 46 47 47 48 48 48 47 47 48 48 47 47 46 46 46 46 46 46 47 47
27 26 27 28 28 27 27 27 29 31 32 33 34 36 38 40 40 41 42 43 45 47 48 47 47 47 48 49 48 47 47 47 48 47 46 46 46 46 46 47 48 48 48
27 26 26 27 27 28 28 28 29 31 33 34 34 35 36 39 39 40 40 41 43 45 46 47 48 47 48 49 48 47 48 48 48 47 47 48 48 48 48 48 49 48 47
28 28 27 27 28 28 29 30 31 31 32 34 35 35 36 37 38 39 39 39 41 42 43 45 46 47 49 49 49 49 48 49 48 48 48 48 49 50 49 48 49 48 47
27 27 28 28 28 28 29 30 31 32 32 33 34 34 35 36 37 38 39 39 39 40 42 44 45 46 47 49 49 49 49 50 49 49 49 49 49 49 49 48 48 48 47
27 28 28 28 29 29 29 30 30 31 31 33 34 34 35 37 37 38 39 39 39 40 41 42 44 45 47 48 49 49 48 49 49 48 49 49 50 49 48 47 47 47 46
27 27 27 28 28 28 28 29 29 30 31 32 33 34 34 36 37 38 39 39 40 40 41 42 43 45 46 48 49 49 49 49 48 47 47 47 48 47 47 47 46 46 46
26 26 27 28 28 29 29 30 30 30 31 30 31 32 33 34 36 37 37 39 40 40 41 42 43 44 45 46 47 48 48 48 47 47 47 48 47 47 47 47 46 46 47
26 26 26 27 28 29 30 30 30 30 31 31 31 32 33 34 35 36 37 37 38 39 40 42 43 44 44 46 46 46 47 47 46 47 47 48 48 48 48 48 47 47 47
26 26 26 26 27 28 29 29 30 30 30 30 31 32 32 33 34 35 36 36 38 39 40 41 42 43 43 44 45 45 45 46 46 46 47 47 48 48 48 48 48 49 49
26 26 27 26 27 27 28 28 28 29 29 30 31 31 32 32 34 35 36 37 37 39 40 41 41 42 42 43 44 44 45 45 46 46 47 47 48 48 48 48 48 49 49
26 26 26 26 26 27 27 28 28 29 30 30 31 31 32 32 33 34 35 36 37 38 38 39 40 41 42 43 44 44 44 44 44 44 45 46 47 47 47 48 48 48 49
26 26 26 26 26 27 27 27 28 29 29 30 31 32 33 33 33 34 34 36 36 37 37 38 39 40 41 42 43 43 44 44 44 44 44 45 47 47 47 48 48 48 48
Wind_Direction
274 270 265 262 258 256 254 253 250 247 244 242 242 241 239 239 239 240 242 242 241 240 240 240 241 242 242 242 242 243 244 245 246 247 248 247 248 248 247 247 248 248 250
274 270 267 264 260 256 254 253 250 246 242 242 242 242 241 239 239 239 240 240 240 240 240 241 241 242 242 241 242 243 244 245 247 247 247 248 249 249 248 248 248 249 250
275 271 267 265 262 257 254 252 250 245 244 242 241 241 241 239 238 237 238 238 239 241 241 242 242 242 243 243 242 242 243 245 247 247 248 248 249 250 250 249 249 250 251
277 274 269 265 262 258 255 252 249 247 244 242 240 241 241 238 237 236 236 237 239 241 242 243 242 243 243 242 242 243 243 243 244 246 247 249 249 250 250 250 251 251 253
278 276 271 267 263 259 257 253 249 248 244 241 241 241 240 238 236 236 237 237 239 240 242 242 242 242 243 244 243 242 242 242 243 245 247 248 249 250 251 251 252 252 254
279 277 275 271 266 262 260 256 249 246 244 243 242 240 239 237 237 236 237 237 238 240 242 242 243 243 243 244 244 243 242 243 243 244 246 248 250 251 251 252 252 253 254
281 279 277 274 269 264 261 257 251 247 245 244 242 240 240 238 237 237 238 238 239 240 242 243 244 244 244 244 244 243 242 242 243 245 247 249 251 252 251 252 252 252 254
282 280 277 277 271 265 262 258 252 248 245 245 244 242 241 239 239 239 240 239 239 240 241 242 243 243 243 243 244 245 243 243 243 245 248 250 251 252 251 252 253 253 255
283 282 280 277 271 268 264 260 254 250 248 247 245 243 241 242 241 240 241 241 241 241 242 241 241 242 242 242 243 245 245 243 244 247 249 251 252 252 252 253 255 255 255
284 283 280 277 273 268 265 262 257 253 251 248 245 243 242 243 243 242 242 243 242 242 242 241 241 243 243 243 244 245 246 245 247 248 250 251 251 253 253 254 256 257 257
284 282 281 279 276 270 266 263 259 255 252 250 248 247 245 244 243 243 242 242 243 245 245 242 243 244 243 244 245 246 248 247 247 248 250 250 252 253 255 255 256 258 259
283 280 278 279 277 273 269 265 260 257 253 251 251 249 248 246 245 244 243 244 244 244 244 243 243 244 244 244 246 247 248 247 246 248 250 251 253 254 255 255 256 258 259
285 282 279 278 277 275 271 267 262 259 257 255 254 252 250 248 247 246 246 245 244 244 244 243 244 244 244 245 246 247 247 247 247 249 251 252 253 254 255 256 257 258 258
287 284 281 280 277 275 273 269 264 261 259 257 256 254 250 248 247 247 247 245 244 244 245 245 245 244 244 244 245 247 248 247 248 249 251 253 253 254 255 256 257 258 258
284 282 281 279 277 274 272 272 269 264 261 259 258 257 252 249 249 248 247 245 243 243 245 246 246 245 243 243 245 246 247 247 247 248 251 253 254 255 255 255 257 258 259
281 281 280 279 277 275 272 273 272 268 264 261 259 257 253 249 249 249 248 246 244 244 245 247 247 246 245 245 245 247 247 247 248 250 251 253 254 254 255 256 258 259 259
280 280 280 280 279 277 275 274 273 270 267 262 260 258 254 251 251 249 248 247 247 246 246 247 247 248 247 246 248 249 248 248 250 251 252 253 253 254 256 257 258 258 259
279 278 279 278 278 277 276 275 274 271 269 265 261 259 257 254 253 251 250 249 250 249 247 248 248 248 248 248 248 248 248 248 249 250 252 253 254 256 256 257 258 259 258
280 278 278 278 277 277 276 276 276 273 270 267 263 261 259 256 255 253 251 251 251 250 249 249 249 249 249 249 249 249 248 249 249 251 252 254 255 256 255 256 258 259 258
283 280 278 277 277 277 277 277 277 277 274 270 267 264 262 260 257 256 254 253 253 252 252 252 253 253 252 252 251 251 250 250 251 253 253 254 255 254 254 256 258 258 258
284 282 280 279 278 278 278 277 278 277 276 274 272 268 266 263 260 258 257 256 255 255 255 256 257 257 256 256 255 253 251 252 254 255 255 255 255 255 255 256 257 258 258
285 284 283 281 279 279 278 278 277 277 276 275 274 271 267 264 262 261 260 259 258 258 258 258 259 258 258 257 256 255 253 254 256 256 256 256 255 255 256 257 258 259 257
286 285 285 282 280 279 279 278 277 276 275 273 272 271 269 266 263 262 261 261 260 260 260 260 260 259 258 257 256 254 254 255 257 257 256 255 255 254 255 256 258 258 258
289 287 286 285 282 280 279 278 277 276 275 273 273 272 272 270 267 265 262 262 263 262 262 261 260 259 257 256 255 254 254 255 255 255 255 254 253 254 255 256 257 258 258
289 289 288 286 284 281 279 279 278 278 276 274 273 273 272 272 270 267 265 264 263 263 263 262 261 259 258 256 256 255 256 255 254 255 254 253 253 254 255 256 257 257 258
289 288 287 286 285 283 281 279 279 279 278 276 274 273 273 272 270 267 266 264 264 264 264 263 262 260 258 257 256 256 255 254 254 254 255 254 254 254 255 256 257 257 258
Height
5662 5660 5658 5657 5657 5658 5659 5659 5662 5664 5668 5673 5677 5682 5687 5690 5694 5699 5703 5708 5712 5716 5720 5723 5727 5730 5734 5738 5741 5744 5748 5751 5754 5756 5758 5760 5762 5764 5766 5767 5769 5771 5773
5652 5650 5648 5647 5646 5646 5647 5648 5650 5653 5657 5662 5666 5671 5675 5679 5683 5688 5692 5697 5702 5706 5709 5713 5716 5720 5723 5727 5731 5735 5739 5741 5744 5747 5749 5751 5754 5755 5757 5759 5761 5763 5764
5643 5641 5639 5637 5636 5636 5637 5639 5640 5643 5647 5650 5655 5659 5663 5667 5672 5677 5682 5687 5691 5695 5699 5703 5707 5711 5714 5717 5721 5725 5729 5732 5735 5737 5740 5742 5745 5747 5748 5750 5752 5754 5756
5633 5631 5629 5628 5627 5627 5627 5628 5630 5633 5636 5640 5644 5648 5652 5657 5662 5667 5672 5676 5681 5685 5689 5693 5697 5701 5704 5707 5711 5714 5718 5721 5724 5727 5730 5733 5735 5738 5740 5741 5743 5745 5746
5625 5622 5620 5618 5618 5618 5618 5619 5620 5623 5626 5629 5634 5638 5642 5647 5652 5656 5661 5666 5670 5674 5678 5683 5687 5691 5694 5697 5700 5704 5707 5711 5714 5717 5720 5723 5725 5727 5729 5732 5734 5735 5737
5617 5615 5612 5610 5609 5609 5609 5610 5611 5614 5617 5620 5624 5628 5632 5637 5641 5645 5650 5655 5660 5664 5668 5672 5676 5680 5684 5687 5690 5693 5697 5700 5704 5707 5710 5712 5715 5717 5719 5721 5723 5725 5727
5609 5607 5605 5603 5601 5601 5601 5601 5602 5605 5608 5611 5614 5618 5622 5626 5631 5635 5640 5644 5649 5653 5657 5661 5665 5669 5673 5676 5679 5682 5686 5690 5693 5697 5699 5702 5704 5706 5708 5710 5712 5714 5716
5602 5600 5598 5596 5594 5594 5593 5593 5594 5597 5599 5602 5605 5608 5612 5616 5620 5625 5629 5633 5638 5642 5646 5650 5654 5658 5662 5665 5669 5672 5675 5679 5682 5686 5688 5691 5693 5695 5697 5699 5701 5703 5705
5595 5593 5591 5589 5588 5587 5586 5586 5587 5589 5591 5593 5596 5598 5602 5606 5610 5614 5618 5622 5626 5631 5634 5638 5642 5646 5650 5654 5657 5661 5664 5667 5671 5674 5677 5679 5682 5684 5686 5688 5690 5692 5694
5588 5586 5584 5582 5580 5579 5579 5578 5579 5581 5583 5585 5586 5589 5592 5596 5600 5603 5607 5611 5615 5619 5623 5626 5630 5634 5638 5642 5645 5649 5653 5656 5659 5662 5665 5668 5670 5672 5674 5676 5678 5679 5681
5581 5579 5577 5575 5573 5571 5571 5570 5571 5572 5574 5575 5577 5580 5583 5586 5589 5592 5596 5599 5603 5607 5611 5614 5618 5622 5626 5629 5633 5637 5640 5644 5647 5650 5653 5656 5658 5660 5662 5664 5666 5667 5669
5573 5571 5569 5567 5566 5565 5564 5563 5563 5563 5564 5566 5568 5570 5573 5575 5578 5581 5585 5588 5592 5595 5598 5602 5606 5610 5614 5617 5621 5625 5628 5631 5635 5638 5641 5644 5646 5648 5650 5652 5653 5655 5656
5565 5563 5562 5560 5558 5557 5556 5555 5555 5555 5556 5557 5559 5561 5562 5565 5567 5570 5573 5576 5580 5583 5586 5589 5594 5598 5601 5605 5609 5612 5615 5619 5623 5626 5629 5631 5634 5636 5638 5639 5641 5643 5644
5557 5555 5553 5552 5550 5549 5548 5548 5547 5547 5547 5548 5549 5551 5552 5554 5556 5559 5561 5564 5567 5571 5574 5577 5581 5585 5588 5592 5596 5599 5603 5607 5610 5613 5616 5619 5621 5623 5625 5627 5629 5630 5632
5549 5548 5546 5544 5543 5542 5541 5540 5539 5538 5539 5539 5540 5541 5542 5543 5545 5547 5550 5552 5555 5558 5562 5565 5568 5572 5576 5580 5584 5587 5591 5594 5598 5601 5603 5606 5608 5610 5612 5614 5616 5618 5619
5541 5540 5538 5536 5535 5534 5533 5532 5531 5530 5529 5530 5530 5530 5531 5533 5535 5536 5538 5541 5544 5547 5550 5554 5557 5560 5564 5568 5571 5575 5578 5582 5585 5588 5591 5593 5595 5598 5600 5602 5603 5605 5607
5533 5532 5530 5529 5527 5526 5524 5523 5522 5521 5521 5521 5521 5521 5521 5523 5523 5525 5528 5530 5533 5535 5538 5542 5545 5548 5552 5555 5559 5562 5565 5569 5572 5576 5578 5581 5583 5585 5587 5589 5590 5592 5593
5526 5524 5522 5521 5519 5517 5516 5515 5513 5512 5512 5511 5511 5511 5511 5513 5513 5515 5517 5520 5522 5524 5527 5530 5533 5536 5539 5542 5546 5549 5552 5555 5559 5562 5565 5568 5570 5572 5574 5576 5577 5579 5581
5517 5516 5514 5512 5511 5509 5508 5506 5505 5504 5503 5502 5502 5501 5502 5503 5504 5505 5507 5509 5511 5513 5515 5518 5521 5524 5526 5529 5532 5535 5538 5542 5545 5548 5551 5554 5557 5559 5561 5563 5565 5566 5568
5509 5507 5506 5504 5502 5501 5499 5498 5496 5495 5494 5493 5492 5492 5492 5493 5494 5495 5496 5498 5500 5502 5504 5506 5509 5511 5514 5516 5519 5521 5525 5529 5533 5536 5538 5541 5543 5545 5547 5550 5552 5554 5555
5501 5499 5497 5496 5494 5492 5491 5489 5488 5486 5485 5484 5483 5483 5483 5483 5484 5484 5486 5487 5489 5491 5493 5495 5497 5499 5502 5503 5506 5508 5512 5515 5519 5522 5525 5527 5530 5532 5534 5537 5539 5541 5542
5493 5491 5489 5487 5485 5484 5482 5480 5479 5478 5477 5476 5475 5474 5474 5474 5474 5474 5475 5476 5478 5479 5481 5483 5484 5486 5488 5490 5493 5495 5499 5502 5506 5509 5512 5514 5516 5519 5521 5523 5526 5527 5528
5484 5482 5481 5479 5477 5475 5474 5472 5470 5469 5468 5467 5466 5465 5465 5464 5464 5465 5465 5466 5467 5468 5470 5471 5472 5474 5476 5478 5480 5483 5486 5489 5492 5495 5498 5500 5503 5505 5508 5510 5512 5513 5514
5476 5474 5472 5470 5468 5467 5465 5464 5462 5461 5459 5458 5457 5456 5455 5455 5454 5455 5455 5455 5456 5457 5457 5459 5460 5461 5463 5464 5466 5469 5472 5476 5478 5481 5484 5486 5489 5491 5494 5496 5498 5499 5501
5468 5466 5464 5462 5460 5458 5457 5455 5453 5452 5451 5450 5448 5447 5446 5445 5445 5445 5445 5445 5445 5445 5446 5447 5448 5449 5451 5452 5454 5456 5459 5463 5465 5468 5470 5473 5475 5478 5480 5482 5484 5485 5487
5460 5458 5456 5453 5451 5450 5448 5446 5445 5443 5442 5440 5439 5438 5436 5436 5435 5435 5435 5434 5435 5435 5435 5435 5437 5438 5439 5441 5442 5444 5446 5449 5452 5455 5457 5460 5462 5464 5466 5468 5470 5471 5473